Simultaneous Nadir Overpasses (SNOs) Predictions

Prediction of SNOs between NOAA-20 and AQUA Satellite Orbit:

Table of predicted SNOs for the next 14.0 days since TLE Epoch: 9/7/2024
Index Date (NOAA-20) Time (NOAA-20) Lat,Lon (NOAA-20) SZA (NOAA-20 ) Date (AQUA) Time (AQUA) Lat,Lon (AQUA) SZA (AQUA ) Distance(km) Time Diff (sec)
1 09/08/2024 16:58:16 -81.31, 32.20 97.87 09/08/2024 16:58:25 -81.32, 32.19 97.87 0.36 9
2 09/08/2024 17:48:59 81.32,-159.98 82.08 09/08/2024 17:47:46 81.32,-160.16 82.15 3.17 73
3 09/11/2024 04:10:38 -81.31,-136.43 96.90 09/11/2024 04:11:38 -81.30,-136.35 96.95 1.47 60
4 09/11/2024 05:01:20 81.32, 31.77 83.00 09/11/2024 05:00:58 81.32, 31.64 83.03 2.14 22
5 09/13/2024 16:13:41 81.31,-136.64 83.94 09/13/2024 16:14:07 81.31,-136.70 83.94 0.99 26
6 09/13/2024 17:04:26 -81.32, 30.88 96.08 09/13/2024 17:03:28 -81.32, 31.03 96.06 2.53 58
7 09/16/2024 03:26:02 81.31, 54.81 84.92 09/16/2024 03:27:13 81.30, 54.83 84.87 0.76 71
8 09/16/2024 04:16:45 -81.32,-136.88 95.21 09/16/2024 04:16:33 -81.32,-137.05 95.18 2.91 12
9 09/18/2024 15:29:05 -81.32, 54.82 94.27 09/18/2024 15:29:35 -81.32, 54.72 94.27 1.65 30
10 09/18/2024 16:19:49 81.32,-137.79 85.74 09/18/2024 16:18:56 81.31,-137.80 85.77 0.43 53
11 09/21/2024 02:41:25 -81.31,-113.64 93.30 09/21/2024 02:42:34 -81.31,-113.64 93.34 0.19 69



Historial Predications of SNOs between NOAA-20 and AQUA
